Weather in Raskovoy

Russia / Magadan District     62°09′18″N   146°30′07″E
temp.,
°C
wind,
m/s
gust,
m/s
humid.,
%
clouds,
%
prec.,
mm/h
press.,
hPa
HPBL,
m
22 october, fri
fri2223:00−24wsw111005 0.0 10169
02:00−24wsw1110027 0.0 10169
05:00−24sw1110031 0.0 10159
08:00−24sw119930 0.0 10149
11:00−19s019512 0.0 101138
14:00−16ese1190100 0.0 100793
17:00−17se1196100 0.0 10069
20:00−18sse2296100 0.0 100721
23 october, sat
sat2323:00−19sse1197100 0.0 100711
02:00−19nw119982 0.0 10089
05:00−19wnw1199100 0.0 100923
08:00−19wnw119869 0.1 100922
11:00−17nw119673 0.1 101080
14:00−16nnw229378 0.1 1009163
17:00−19nw1110079 0.1 10119
20:00−20w1110088 0.0 10139
24 october, sun
sun2423:00−21w1110088 0.1 10149
02:00−21w1110091 0.0 10159
05:00−22w1110081 0.1 10179
08:00−23w1110060 0.0 10189
11:00−19wnw119514 0.0 101735
14:00−16wnw11885 0.0 101466
17:00−20ssw229589 0.0 10149
20:00−17ssw2288100 0.0 101325
25 october, mon
mon2523:00−17s228799 0.0 101122
02:00−15s2283100 0.0 100830
05:00−15sw218397 0.0 100715
08:00−16sw2282100 0.0 100717
11:00−13sw2278100 0.0 100629
14:00−11wsw217982 0.0 100423
17:00−14w118755 0.0 10069
20:00−18w11955 0.0 10109
26 october, tue
tue2623:00−19wsw21975 0.0 10129
02:00−20sw21985 0.0 10139
05:00−20wsw119819 0.0 10149
08:00−20wsw11985 0.0 10159
11:00−17wsw119222 0.0 101418
14:00−13nw00895 0.0 101325
17:00−18sw119513 0.0 10159
20:00−20sw119411 0.0 10179